カタログに戻る

STARLINK-1942

運用中通信VLEO
NORAD 46794·PAYLOAD·🇺🇸 United States

打ち上げ Oct 24, 2020 から Cape Canaveral Space Force Station

Loading…

次のパス (今後24時間)

TLE

最新Source: CelesTrak SupGP

元期: Sep 14, 2026, 23:59 UTC

1 46794C 20074BH  26257.99979167  .01398200  00000+0  98082-3 0  2571
2 46794  53.0216  77.6281 0009932 283.7696 295.2452 16.14708628    17

AllMySatでSTARLINK-1942をリアルタイム追跡

Download on the App Store